www.pogodaiklimat.ru

Погода и климат >> Архив погоды >> Перу >> Puerto Maldonado


ПОГОДА в Puerto Maldonado

  • Прогноз погоды в Puerto Maldonado
  • Монитор погоды в Puerto Maldonado
  • Климат города

АРХИВ ПОГОДЫ в Puerto Maldonado

Время (UTC), дата Ветер
(напр.,м/с)
 
Видим.   Явления Облачность Т
(С)
Тd
(С)
f
(%)
Тe
(С)
Тes
(С)
Комфортность P
(гПа)
Po
(гПа)
Тmin
(С)
Tmax
(С)
R
(мм)
R24
(мм)
S
(см)
12 16.01 нст 2 2000 м дымка {туман} 9/1 300 м
[Frnb Ac trans]
+22.8 +22.6 99 +31 +33 очень
душно
1012.0 989.0 +21.9 9
15 16.01 нст 1 10 км 10/6 450 м
[Frnb Ac trans]
+26.8 +22.5 77 +35 +39 очень
душно
1012.7 990.0
18 16.01 нст 3 10 км 10/6 450 м
[Cu hum Ac trans]
+30.9 +22.7 62 +41 +43 опасность
перегрева
1010.8 988.5
21 16.01 нст 1 10 км {дождь} 10/3 450 м
[Cu hum As trans]
+26.9 +24.0 84 +37 +39 очень
душно
1007.6 985.1
12 17.01 нст 2 10 км 9/1 900 м
[Sc As trans]
+23.1 +22.6 97 +32 +33 очень
душно
1011.0 988.1 +21.9 4
15 17.01 нст 3 10 км 10/6 360 м
[Cu hum Ac trans]
+27.0 +23.3 80 +36 +39 очень
душно
1012.2 989.6
18 17.01 нст 2 10 км 10/6 450 м
[Cu hum Ac trans]
+28.9 +23.2 71 +39 +42 очень
душно
1008.8 986.4
21 17.01 нст 1 4000 м дождь {гроза} 8/8 600 м
[Cu med, cong]
+22.8 +22.6 99 +31 +32 очень
душно
1006.8 984.0
15 18.01 нст 4 10 км 10/8 450 м
[Frnb As trans]
+24.8 +23.6 93 +34 +35 очень
душно
1013.2 990.4
18 18.01 нст 4 10 км 9/4 450 м
[Cu hum As trans]
+27.8 +22.2 72 +36 +41 очень
душно
1009.6 987.1
21 18.01 нст 1 10 км 10/1 600 м
[Sc As trans]
+25.8 +24.4 92 +36 +38 очень
душно
1007.0 984.4
00 19.01 штиль 0 8000 м 6/0
[As trans]
+23.9 +23.4 97 +32 +32 очень
душно
1007.3 984.5 +29.6
03 19.01 СЗ 1 8000 м ясно +23.6 +23.4 99 +32 +32 очень
душно
1010.8 988.0
12 19.01 нст 1 2000 м дымка {туман} 10/3 1200 м
[Sc Ac trans]
+23.9 +23.6 98 +32 +34 очень
душно
1011.9 989.0 +22.6
15 19.01 нст 1 10 км 10/3 450 м
[Cu hum Ac trans]
+28.4 +23.9 77 +39 +46 очень
душно
1012.7 990.1
18 19.01 нст 2 10 км 5/5 540 м
[Cu hum]
+31.8 +22.2 57 +41 +51 опасность
перегрева
1008.7 986.5
21 19.01 нст 2 10 км 10/6 600 м
[Cu hum As trans]
+35.0 +22.3 48 +44 +45 опасность
перегрева
1005.1 983.2
00 20.01 С 3 8000 м слабый дождь 8/3 750 м
[Cu med, cong As trans]
+23.9 +23.1 95 +32 +32 очень
душно
1007.9 985.1 +35.2 2
12 20.01 нст 2 10 км {туман} 10/3 240 м
[Frnb Ac trans]
+23.1 +22.8 98 +32 +33 очень
душно
1012.0 989.0 +21.7 17
15 20.01 нст 3 10 км 10/6 360 м
[Frnb Ac trans]
+25.7 +22.8 84 +34 +36 очень
душно
1013.2 990.5
18 20.01 нст 3 10 км 3/3 450 м
[Cu hum]
+29.7 +23.6 70 +41 +53 опасность
перегрева
1010.2 987.8
21 20.01 нст 2 10 км ясно +31.3 +22.8 61 +41 +46 опасность
перегрева
1004.9 982.7
12 21.01 нст 2 10 км 5/0
[Ac trans]
+25.3 +23.0 87 +34 +36 очень
душно
1009.9 987.2 +21.6
15 21.01 нст 3 10 км 5/5 450 м
[Cu hum]
+30.7 +23.9 67 +42 +50 опасность
перегрева
1010.0 987.7
18 21.01 нст 2 10 км 5/5 450 м
[Cu hum]
+33.0 +23.0 56 +43 +54 опасность
перегрева
1009.5 984.5
21 21.01 нст 4 10 км {дождь} 10/5 750 м
[Sc As trans]
+26.5 +23.0 81 +35 +36 очень
душно
1004.8 982.1
12 22.01 С 2 10 км 5/0
[Ac trans]
+23.3 +22.5 95 +32 +35 очень
душно
1008.1 985.2 +22.0 8
15 22.01 нст 4 10 км 1/1 450 м
[Cu hum]
+29.8 +23.2 68 +40 +52 опасность
солнечного
удара
1008.7 986.4
18 22.01 нст 4 10 км 6/6 450 м
[Cu hum]
+32.8 +23.7 59 +44 +50 опасность
перегрева
1005.8 983.7
21 22.01 нст 1 10 км 9/3 450 м
[Cu hum As trans]
+27.5 +25.0 86 +39 +41 очень
душно
1001.7 979.4

 

Местоположение метеостанции Puerto Maldonado (Перу): широта -12.60 долгота -69.21 высота над уровнем моря 201 м.

В архиве по умолчанию представлена погода в Puerto Maldonado за последнюю неделю. Архивные данные за месяц целиком и за предыдущие месяцы, начиная с января 2011 года, Вы можете получить, выбрав интересующий диапазон дат из раскрывающегося списка и нажав кнопку "Ввод!".

Внимание! Время в таблицах - всемирное. Для получения местного времени необходимо прибавить поправку, которая в Puerto Maldonado равна -5 ч.

Смотрите также архив погоды в соседних городах и на ближайших метеорологических станциях:

Погода в Cobija (Боливия) (181 км)
Погода в Epitaciolandia (Бразилия) (183 км)
Погода в Rurrenabaque (Боливия) (273 км)
Погода в Reyes (Боливия) (275 км)
Погода в Santa Rosa (Боливия) (305 км)
Погода в Cuzco (Перу) (312 км)
Погода в Rio Branco (Бразилия) (315 км)
Погода в Rio Branco (Бразилия) (328 км)
Погода в Juliaca (Перу) (336 км)
Погода в San Borja (Боливия) (357 км)

Пояснения к столбцам:

Ветер - указаны скорость ветра в м/с - средняя за 10 мин, порывы в срок и между сроками (в фигурных скобках) и направление, откуда дует ветер: С - северный, СВ - северо-восточный, В - восточный, ЮВ - юго-восточный, Ю - южный, ЮЗ - юго-западный, З - западный, СЗ - северо-западный.
Видимость - горизонтальная дальность видимости в метрах или километрах. При видимости от 1 до 10 км при отсутствии осадков обычно наблюдается дымка, при ухудшении видимости до 1 км и менее - туман. В сухую погоду видимость может ухудшаться дымом, пылью или мглою.
Явления - указаны атмосферные явления, наблюдавшиеся в срок или в последний час перед сроком; фигурными скобками обозначены явления, наблюдавшиеся между сроками (за 1-3 часа до срока); квадратными скобками обозначены град или гололедные отложения с указанием их диаметра в мм.
Облачность - указаны через наклонную черту общая и нижняя облачность в баллах и высота нижней границы облаков в метрах; квадратными скобками обозначены формы облаков: Ci - перистые, Cs - перисто-слоистые, Cc - перисто-кучевые, Ac - высококучевые, As - высокослоистые, Sc - слоисто-кучевые, Ns - слоисто-дождевые, Cu - кучевые, Cb - кучево-дождевые. Подробнее классификацию облаков см. в Атласе облаков (PDF).
T - Температура воздуха - температура, измеренная на высоте 2 м над землей.
Td - Температура точки росы - температура, при понижении до которой содержащийся в воздухе водяной пар достигнет насыщения.
f - Относительная влажность воздуха - влажноcть воздуха, измеренная на высоте 2 м над землей.
Te - Эффективная температура - температура, которую ощущает одетый по сезону человек в тени. Характеристика душности погоды. При расчете учитывается влияние влажности воздуха и скорости ветра на теплоощущения человека.
Tes - Эффективная температура на солнце - температура, которую ощущает человек, с поправкой на солнечный нагрев. Характеристика знойности погоды. Зависит от высоты солнца над горизонтом, облачности и скорости ветра. Ночью, в пасмурную погоду, а также при ветре 12 м/с и более поправка равна нулю.
P - Атмосферное давление - приведенное к уровню моря атмосферное давление.
Po - Атмосферное давление - измеренное на уровне метеостанции атмосферное давление.
Tmin - Минимальная температура - минимум температуры воздуха на высоте 2 м над землей.
Tmax - Максимальная температура - максимум температуры воздуха на высоте 2 м над землей.
R - Количество осадков - Количество выпавших осадков за период времени, мм. При наведении курсора мыши на число - период времени, за который выпало указанное количество осадков.
R24 - Количество осадков - Количество выпавших осадков за 24 часа, мм.
S - Снежный покров - Высота снежного покрова, см. При наведении курсора мыши на число - состояние снежного покрова и степень покрытия местности в баллах.